Simultaneous Nadir Overpasses (SNOs) Predictions

Prediction of SNOs between AQUA and METOP-A Satellite Orbit:

Table of predicted SNOs for the next 14.0 days since TLE Epoch: 7/27/2013
Index Date (AQUA) Time (AQUA) Lat,Lon (AQUA) SZA (AQUA ) Date (METOP-A) Time (METOP-A) Lat,Lon (METOP-A) SZA (METOP-A ) Distance(km) Time Diff (sec)
1 07/28/2013 09:26:26 -73.82,-147.29 125.02 07/28/2013 09:25:36 -73.84,-147.34 124.99 2.21 50
2 07/28/2013 10:15:55 73.88, 20.21 55.06 07/28/2013 10:16:14 73.91, 20.18 55.09 3.48 19
3 07/31/2013 05:00:42 -73.82, -80.87 124.34 07/31/2013 04:59:59 -73.83, -80.94 124.32 2.52 43
4 07/31/2013 05:50:11 73.89, 86.62 55.74 07/31/2013 05:50:37 73.91, 86.57 55.76 2.35 26
5 08/03/2013 00:34:59 -73.84, -14.48 123.61 08/03/2013 00:34:23 -73.82, -14.56 123.62 3.19 36
6 08/03/2013 01:24:28 73.92, 152.99 56.48 08/03/2013 01:25:01 73.90, 152.95 56.46 2.54 33
7 08/05/2013 20:09:16 -73.88, 51.86 122.82 08/05/2013 20:08:46 -73.86, 51.93 122.83 3.37 30
8 08/05/2013 20:58:44 73.91,-140.57 57.23 08/05/2013 20:59:24 73.93,-140.56 57.24 2.47 40
9 08/08/2013 15:43:30 -73.84, 118.39 122.08 08/08/2013 15:43:09 -73.84, 118.30 122.06 3.03 21
10 08/08/2013 16:32:59 73.92, -74.16 58.03 08/08/2013 16:33:47 73.92, -74.19 58.01 1.32 48




NCC Satellite Simultaneous Nadir Overpasses (SNOs) Prediction Service
